Overview Statistics Trail Chart Weather Telemetry Raw packets
 

This is the latest recevied weather packets stored in our database for station/object ac2ev. If no packets are shown the sender has not sent any weather packets the latest 10 day(s).

<< 30 31 32 33 34 35 36 >>
Time Temp. Humidity Pressure Rain* Wind** Luminosity Snow
1788455309 28.33° C 66% 1012 hPa 0 mm - - -
1788455010 27.78° C 64% 1012.1 hPa 0 mm - - -
1788454703 28.33° C 64% 1012.3 hPa 0 mm - - -
1788454397 28.33° C 64% 1012.3 hPa 0 mm - - -
1788454091 28.33° C 66% 1012.4 hPa 0 mm - - -
1788453792 27.78° C 65% 1012.3 hPa 0 mm - - -
1788453492 27.78° C 65% 1012.3 hPa 0 mm - - -
1788453192 27.22° C 64% 1012.4 hPa 0 mm - - -
1788452889 27.22° C 63% 1012.5 hPa 0 mm - - -
1788452587 27.78° C 64% 1012.5 hPa 0 mm - - -
1788452287 27.78° C 63% 1012.5 hPa 0 mm - - -
1788451987 27.22° C 65% 1012.6 hPa 0 mm - - -
1788451688 26.67° C 62% 1012.7 hPa 0 mm - - -
1788451387 26.67° C 63% 1012.8 hPa 0 mm - - -
1788451085 26.67° C 65% 1012.8 hPa 0 mm - - -
1788450786 26.67° C 64% 1012.9 hPa 0 mm - - -
1788450485 26.67° C 67% 1012.9 hPa 0 mm - - -
1788450183 26.11° C 67% 1013 hPa 0 mm - - -
1788449882 26.11° C 69% 1013 hPa 0 mm - - -
1788449583 25.56° C 72% 1013.1 hPa 0 mm - - -
1788449282 25.56° C 73% 1013.1 hPa 0 mm - - -
1788448983 25.56° C 74% 1013.1 hPa 0 mm - - -
1788448682 25° C 76% 1013.1 hPa 0 mm - - -
1788448383 25° C 78% 1013.1 hPa 0 mm - - -
1788448082 25° C 79% 1013.1 hPa 0 mm - - -

* Rain latest hour (hover to see other rain measurements)
** Current wind speed in m/s (hover to see current wind gust speed)